Weather in Birmingham

United States     33°31′26″N   86°48′17″W
temp.,
°C
wind,
m/s
gust,
m/s
humid.,
%
clouds,
%
prec.,
mm/h
press.,
hPa
HPBL,
m
26 may, thu
thu2601:00+19s41698100 6.8 1016745
04:00+19sse51398100 3.1 1015770
07:00+19s51398100 4.4 1015958
10:00+19ssw31098100 38.1 1015666
13:00+17ssw51596100 63.1 1014609
16:00+19sw3995100 1.1 1012676
19:00+20sse269032 1.2 1012199
22:00+17sse279817 0.2 1013168
27 may, fri
fri2701:00+16s2109829 0.5 1012245
04:00+16sw289936 0.5 1012261
07:00+16w14950 0.6 1013187
10:00+21wsw48610 0.0 10131098
13:00+24w474865 0.0 10132101
16:00+23w375999 0.0 1012716
19:00+20nw38720 0.0 1013483
22:00+17nw14870 0.0 1014101
28 may, sat
sat2801:00+15nw11890 0.0 101415
04:00+15nnw11920 0.0 101411
07:00+16nnw12870 0.0 1015138
10:00+22n23650 0.0 1015904
13:00+26wnw11510 0.0 10141484
16:00+27nw12460 0.0 10131766
19:00+24nne01680 0.0 101211
22:00+20e11760 0.0 101416
29 may, sun
sun2901:00+18se11810 0.0 101413
04:00+17ese11830 0.0 101411
07:00+19ese13825 0.0 101690
10:00+25sse24581 0.0 1016793
13:00+29s34380 0.0 10161948
16:00+30ssw34385 0.0 10142208
19:00+25ssw12655 0.0 101531
22:00+23ene1158100 0.0 101611
30 may, mon
mon3001:00+23ese126153 0.0 101653
04:00+20ese11760 0.0 101715
07:00+21ese13770 0.0 1019108
10:00+27sse25540 0.0 1020622
13:00+31sse25400 0.0 10191932
16:00+32s35370 0.0 10172423
19:00+27sw24640 0.0 1018122
22:00+24ese01660 0.0 102011